Year,Month,Day,Hour,Minute,Value (Times are PST for temperature in C)
2017,10,17,00,00,11.40
2017,10,17,00,01,11.40
2017,10,17,00,02,11.40
2017,10,17,00,03,11.40
2017,10,17,00,04,11.40
2017,10,17,00,05,11.40
2017,10,17,00,06,11.40
2017,10,17,00,07,11.40
2017,10,17,00,08,11.40
2017,10,17,00,09,11.40
2017,10,17,00,10,11.40
2017,10,17,00,11,11.40
2017,10,17,00,12,11.40
2017,10,17,00,13,11.40
2017,10,17,00,14,11.40
2017,10,17,00,15,11.40
2017,10,17,00,16,11.40
2017,10,17,00,17,11.40
2017,10,17,00,18,11.40
2017,10,17,00,19,11.40
2017,10,17,00,20,11.40
2017,10,17,00,21,11.40
2017,10,17,00,22,11.40
2017,10,17,00,23,11.40
2017,10,17,00,24,11.40
2017,10,17,00,25,11.40
2017,10,17,00,26,11.40
2017,10,17,00,27,11.40
2017,10,17,00,28,11.40
2017,10,17,00,29,11.40
2017,10,17,00,30,11.40
2017,10,17,00,31,11.40
2017,10,17,00,32,11.40
2017,10,17,00,33,11.40
2017,10,17,00,34,11.40
2017,10,17,00,35,11.40
2017,10,17,00,36,11.40
2017,10,17,00,37,11.40
2017,10,17,00,38,11.40
2017,10,17,00,39,11.40
2017,10,17,00,40,11.40
2017,10,17,00,41,11.40
2017,10,17,00,42,11.40
2017,10,17,00,43,11.40
2017,10,17,00,44,11.40
2017,10,17,00,45,11.40
2017,10,17,00,46,11.30
2017,10,17,00,47,11.30
2017,10,17,00,48,11.30
2017,10,17,00,49,11.30
2017,10,17,00,50,11.30
2017,10,17,00,51,11.30
2017,10,17,00,52,11.30
2017,10,17,00,53,11.30
2017,10,17,00,54,11.30
2017,10,17,00,55,11.30
2017,10,17,00,56,11.30
2017,10,17,00,57,11.30
2017,10,17,00,58,11.30
2017,10,17,00,59,11.30
2017,10,17,01,00,11.30
2017,10,17,01,01,11.30
2017,10,17,01,02,11.30
2017,10,17,01,03,11.20
2017,10,17,01,04,11.20
2017,10,17,01,05,11.20
2017,10,17,01,06,11.20
2017,10,17,01,07,11.20
2017,10,17,01,08,11.20
2017,10,17,01,09,11.20
2017,10,17,01,10,11.10
2017,10,17,01,11,11.10
2017,10,17,01,12,11.10
2017,10,17,01,13,11.10
2017,10,17,01,14,11.10
2017,10,17,01,15,11.10
2017,10,17,01,16,11.10
2017,10,17,01,17,11.10
2017,10,17,01,18,11.00
2017,10,17,01,19,11.00
2017,10,17,01,20,11.00
2017,10,17,01,21,11.00
2017,10,17,01,22,11.00
2017,10,17,01,23,11.00
2017,10,17,01,24,11.00
2017,10,17,01,25,10.90
2017,10,17,01,26,10.90
2017,10,17,01,27,10.90
2017,10,17,01,28,10.90
2017,10,17,01,29,10.90
2017,10,17,01,30,10.90
2017,10,17,01,31,10.90
2017,10,17,01,32,10.90
2017,10,17,01,33,10.90
2017,10,17,01,34,10.90
2017,10,17,01,35,10.90
2017,10,17,01,36,10.90
2017,10,17,01,37,10.90
2017,10,17,01,38,10.90
2017,10,17,01,39,10.80
2017,10,17,01,40,10.80
2017,10,17,01,41,10.80
2017,10,17,01,42,10.80
2017,10,17,01,43,10.80
2017,10,17,01,44,10.80
2017,10,17,01,45,10.80
2017,10,17,01,46,10.80
2017,10,17,01,47,10.80
2017,10,17,01,48,10.80
2017,10,17,01,49,10.80
2017,10,17,01,50,10.80
2017,10,17,01,51,10.80
2017,10,17,01,52,10.80
2017,10,17,01,53,10.80
2017,10,17,01,54,10.80
2017,10,17,01,55,10.80
2017,10,17,01,56,10.80
2017,10,17,01,57,10.80
2017,10,17,01,58,10.80
2017,10,17,01,59,10.80
2017,10,17,02,00,10.80
2017,10,17,02,01,10.80
2017,10,17,02,02,10.80
2017,10,17,02,03,10.80
2017,10,17,02,04,10.80
2017,10,17,02,05,10.70
2017,10,17,02,06,10.70
2017,10,17,02,07,10.70
2017,10,17,02,08,10.70
2017,10,17,02,09,10.70
2017,10,17,02,10,10.70
2017,10,17,02,11,10.70
2017,10,17,02,12,10.70
2017,10,17,02,13,10.70
2017,10,17,02,14,10.70
2017,10,17,02,15,10.70
2017,10,17,02,16,10.70
2017,10,17,02,17,10.70
2017,10,17,02,18,10.70
2017,10,17,02,19,10.70
2017,10,17,02,20,10.70
2017,10,17,02,21,10.70
2017,10,17,02,22,10.70
2017,10,17,02,23,10.70
2017,10,17,02,24,10.70
2017,10,17,02,25,10.70
2017,10,17,02,26,10.70
2017,10,17,02,27,10.70
2017,10,17,02,28,10.70
2017,10,17,02,29,10.70
2017,10,17,02,30,10.70
2017,10,17,02,31,10.70
2017,10,17,02,32,10.70
2017,10,17,02,33,10.70
2017,10,17,02,34,10.70
2017,10,17,02,35,10.70
2017,10,17,02,36,10.70
2017,10,17,02,37,10.70
2017,10,17,02,38,10.80
2017,10,17,02,39,10.80
2017,10,17,02,40,10.80
2017,10,17,02,41,10.80
2017,10,17,02,42,10.80
2017,10,17,02,43,10.80
2017,10,17,02,44,10.90
2017,10,17,02,45,10.90
2017,10,17,02,46,10.90
2017,10,17,02,47,10.90
2017,10,17,02,48,10.90
2017,10,17,02,49,10.90
2017,10,17,02,50,11.00
2017,10,17,02,51,11.00
2017,10,17,02,52,11.00
2017,10,17,02,53,11.00
2017,10,17,02,54,11.00
2017,10,17,02,55,11.00
2017,10,17,02,56,11.00
2017,10,17,02,57,11.00
2017,10,17,02,58,11.00
2017,10,17,02,59,11.10
2017,10,17,03,00,11.00
2017,10,17,03,01,11.00
2017,10,17,03,02,11.00
2017,10,17,03,03,11.00
2017,10,17,03,04,11.00
2017,10,17,03,05,11.00
2017,10,17,03,06,11.00
2017,10,17,03,07,11.00
2017,10,17,03,08,11.00
2017,10,17,03,09,11.00
2017,10,17,03,10,11.00
2017,10,17,03,11,11.00
2017,10,17,03,12,11.00
2017,10,17,03,13,11.00
2017,10,17,03,14,11.00
2017,10,17,03,15,10.90
2017,10,17,03,16,10.90
2017,10,17,03,17,10.90
2017,10,17,03,18,10.90
2017,10,17,03,19,10.90
2017,10,17,03,20,10.90
2017,10,17,03,21,10.90
2017,10,17,03,22,10.90
2017,10,17,03,23,10.90
2017,10,17,03,24,10.90
2017,10,17,03,25,10.90
2017,10,17,03,26,10.90
2017,10,17,03,27,10.90
2017,10,17,03,28,10.90
2017,10,17,03,29,10.90
2017,10,17,03,30,11.00
2017,10,17,03,31,11.00
2017,10,17,03,32,11.00
2017,10,17,03,33,11.00
2017,10,17,03,34,11.00
2017,10,17,03,35,11.00
2017,10,17,03,36,11.00
2017,10,17,03,37,11.00
2017,10,17,03,38,11.10
2017,10,17,03,39,11.10
2017,10,17,03,40,11.10
2017,10,17,03,41,11.10
2017,10,17,03,42,11.10
2017,10,17,03,43,11.10
2017,10,17,03,44,11.10
2017,10,17,03,45,11.10
2017,10,17,03,46,11.10
2017,10,17,03,47,11.20
2017,10,17,03,48,11.20
2017,10,17,03,49,11.20
2017,10,17,03,50,11.20
2017,10,17,03,51,11.20
2017,10,17,03,52,11.30
2017,10,17,03,53,11.30
2017,10,17,03,54,11.30
2017,10,17,03,55,11.30
2017,10,17,03,56,11.30
2017,10,17,03,57,11.30
2017,10,17,03,58,11.30
2017,10,17,03,59,11.30
2017,10,17,04,00,11.30
2017,10,17,04,01,11.30
2017,10,17,04,02,11.30
2017,10,17,04,03,11.40
2017,10,17,04,04,11.40
2017,10,17,04,05,11.40
2017,10,17,04,06,11.40
2017,10,17,04,07,11.40
2017,10,17,04,08,11.40
2017,10,17,04,09,11.40
2017,10,17,04,10,11.40
2017,10,17,04,11,11.50
2017,10,17,04,12,11.50
2017,10,17,04,13,11.50
2017,10,17,04,14,11.50
2017,10,17,04,15,11.50
2017,10,17,04,16,11.50
2017,10,17,04,17,11.50
2017,10,17,04,18,11.50
2017,10,17,04,19,11.50
2017,10,17,04,20,11.50
2017,10,17,04,21,11.50
2017,10,17,04,22,11.40
2017,10,17,04,23,11.40
2017,10,17,04,24,11.40
2017,10,17,04,25,11.40
2017,10,17,04,26,11.40
2017,10,17,04,27,11.40
2017,10,17,04,28,11.40
2017,10,17,04,29,11.40
2017,10,17,04,30,11.40
2017,10,17,04,31,11.40
2017,10,17,04,32,11.40
2017,10,17,04,33,11.40
2017,10,17,04,34,11.40
2017,10,17,04,35,11.40
2017,10,17,04,36,11.30
2017,10,17,04,37,11.30
2017,10,17,04,38,11.30
2017,10,17,04,39,11.30
2017,10,17,04,40,11.30
2017,10,17,04,41,11.30
2017,10,17,04,42,11.30
2017,10,17,04,43,11.30
2017,10,17,04,44,11.30
2017,10,17,04,45,11.30
2017,10,17,04,46,11.30
2017,10,17,04,47,11.30
2017,10,17,04,48,11.30
2017,10,17,04,49,11.30
2017,10,17,04,50,11.30
2017,10,17,04,51,11.30
2017,10,17,04,52,11.30
2017,10,17,04,53,11.30
2017,10,17,04,54,11.30
2017,10,17,04,55,11.30
2017,10,17,04,56,11.30
2017,10,17,04,57,11.30
2017,10,17,04,58,11.30
2017,10,17,04,59,11.20
2017,10,17,05,00,11.20
2017,10,17,05,01,11.20
2017,10,17,05,02,11.10
2017,10,17,05,03,11.10
2017,10,17,05,04,11.10
2017,10,17,05,05,11.10
2017,10,17,05,06,11.10
2017,10,17,05,07,11.00
2017,10,17,05,08,11.00
2017,10,17,05,09,11.00
2017,10,17,05,10,11.00
2017,10,17,05,11,10.90
2017,10,17,05,12,10.90
2017,10,17,05,13,10.90
2017,10,17,05,14,10.90
2017,10,17,05,15,10.80
2017,10,17,05,16,10.80
2017,10,17,05,17,10.80
2017,10,17,05,18,10.70
2017,10,17,05,19,10.70
2017,10,17,05,20,10.70
2017,10,17,05,21,10.70
2017,10,17,05,22,10.60
2017,10,17,05,23,10.60
2017,10,17,05,24,10.60
2017,10,17,05,25,10.60
2017,10,17,05,26,10.60
2017,10,17,05,27,10.50
2017,10,17,05,28,10.50
2017,10,17,05,29,10.50
2017,10,17,05,30,10.40
2017,10,17,05,31,10.40
2017,10,17,05,32,10.40
2017,10,17,05,33,10.40
2017,10,17,05,34,10.40
2017,10,17,05,35,10.40
2017,10,17,05,36,10.30
2017,10,17,05,37,10.30
2017,10,17,05,38,10.30
2017,10,17,05,39,10.30
2017,10,17,05,40,10.30
2017,10,17,05,41,10.30
2017,10,17,05,42,10.30
2017,10,17,05,43,10.30
2017,10,17,05,44,10.30
2017,10,17,05,45,10.30
2017,10,17,05,46,10.30
2017,10,17,05,47,10.30
2017,10,17,05,48,10.30
2017,10,17,05,49,10.30
2017,10,17,05,50,10.30
2017,10,17,05,51,10.30
2017,10,17,05,52,10.30
2017,10,17,05,53,10.30
2017,10,17,05,54,10.30
2017,10,17,05,55,10.30
2017,10,17,05,56,10.30
2017,10,17,05,57,10.30
2017,10,17,05,58,10.30
2017,10,17,05,59,10.30
2017,10,17,06,00,10.30
2017,10,17,06,01,10.30
2017,10,17,06,02,10.30
2017,10,17,06,03,10.30
2017,10,17,06,04,10.30
2017,10,17,06,05,10.30
2017,10,17,06,06,10.30
2017,10,17,06,07,10.30
2017,10,17,06,08,10.30
2017,10,17,06,09,10.30
2017,10,17,06,10,10.30
2017,10,17,06,11,10.30
2017,10,17,06,12,10.30
2017,10,17,06,13,10.40
2017,10,17,06,14,10.40
2017,10,17,06,15,10.40
2017,10,17,06,16,10.40
2017,10,17,06,17,10.50
2017,10,17,06,18,10.50
2017,10,17,06,19,10.50
2017,10,17,06,20,10.60
2017,10,17,06,21,10.60
2017,10,17,06,22,10.60
2017,10,17,06,23,10.60
2017,10,17,06,24,10.60
2017,10,17,06,25,10.60
2017,10,17,06,26,10.60
2017,10,17,06,27,10.60
2017,10,17,06,28,10.60
2017,10,17,06,29,10.60
2017,10,17,06,30,10.60
2017,10,17,06,31,10.60
2017,10,17,06,32,10.60
2017,10,17,06,33,10.60
2017,10,17,06,34,10.60
2017,10,17,06,35,10.60
2017,10,17,06,36,10.60
2017,10,17,06,37,10.60
2017,10,17,06,38,10.60
2017,10,17,06,39,10.60
2017,10,17,06,40,10.60
2017,10,17,06,41,10.60
2017,10,17,06,42,10.60
2017,10,17,06,43,10.60
2017,10,17,06,44,10.60
2017,10,17,06,45,10.60
2017,10,17,06,46,10.60
2017,10,17,06,47,10.60
2017,10,17,06,48,10.60
2017,10,17,06,49,10.60
2017,10,17,06,50,10.60
2017,10,17,06,51,10.60
2017,10,17,06,52,10.60
2017,10,17,06,53,10.60
2017,10,17,06,54,10.60
2017,10,17,06,55,10.60
2017,10,17,06,56,10.60
2017,10,17,06,57,10.60
2017,10,17,06,58,10.60
2017,10,17,06,59,10.60
2017,10,17,07,00,10.60
2017,10,17,07,01,10.60
2017,10,17,07,02,10.70
2017,10,17,07,03,10.60
2017,10,17,07,04,10.70
2017,10,17,07,05,10.70
2017,10,17,07,06,10.70
2017,10,17,07,07,10.70
2017,10,17,07,08,10.70
2017,10,17,07,09,10.70
2017,10,17,07,10,10.70
2017,10,17,07,11,10.70
2017,10,17,07,12,10.70
2017,10,17,07,13,10.70
2017,10,17,07,14,10.70
2017,10,17,07,15,10.70
2017,10,17,07,16,10.70
2017,10,17,07,17,10.70
2017,10,17,07,18,10.70
2017,10,17,07,19,10.70
2017,10,17,07,20,10.70
2017,10,17,07,21,10.70
2017,10,17,07,22,10.80
2017,10,17,07,23,10.80
2017,10,17,07,24,10.80
2017,10,17,07,25,10.80
2017,10,17,07,26,10.90
2017,10,17,07,27,10.90
2017,10,17,07,28,11.00
2017,10,17,07,29,11.10
2017,10,17,07,30,11.10
2017,10,17,07,31,11.10
2017,10,17,07,32,11.10
2017,10,17,07,33,11.20
2017,10,17,07,34,11.20
2017,10,17,07,35,11.20
2017,10,17,07,36,11.30
2017,10,17,07,37,11.30
2017,10,17,07,38,11.30
2017,10,17,07,39,11.30
2017,10,17,07,40,11.40
2017,10,17,07,41,11.40
2017,10,17,07,42,11.50
2017,10,17,07,43,11.50
2017,10,17,07,44,11.60
2017,10,17,07,45,11.70
2017,10,17,07,46,11.70
2017,10,17,07,47,11.70
2017,10,17,07,48,11.70
2017,10,17,07,49,11.70
2017,10,17,07,50,11.70
2017,10,17,07,51,11.70
2017,10,17,07,52,11.70
2017,10,17,07,53,11.70
2017,10,17,07,54,11.70
2017,10,17,07,55,11.80
2017,10,17,07,56,11.80
2017,10,17,07,57,11.90
2017,10,17,07,58,11.90
2017,10,17,07,59,12.00
2017,10,17,08,00,12.00
2017,10,17,08,01,12.00
2017,10,17,08,02,12.10
2017,10,17,08,03,12.10
2017,10,17,08,04,12.20
2017,10,17,08,05,12.20
2017,10,17,08,06,12.20
2017,10,17,08,07,12.20
2017,10,17,08,08,12.30
2017,10,17,08,09,12.30
2017,10,17,08,10,12.30
2017,10,17,08,11,12.30
2017,10,17,08,12,12.30
2017,10,17,08,13,12.30
2017,10,17,08,14,12.30
2017,10,17,08,15,12.30
2017,10,17,08,16,12.30
2017,10,17,08,17,12.30
2017,10,17,08,18,12.30
2017,10,17,08,19,12.30
2017,10,17,08,20,12.30
2017,10,17,08,21,12.30
2017,10,17,08,22,12.30
2017,10,17,08,23,12.30
2017,10,17,08,24,12.30
2017,10,17,08,25,12.30
2017,10,17,08,26,12.30
2017,10,17,08,27,12.30
2017,10,17,08,28,12.30
2017,10,17,08,29,12.30
2017,10,17,08,30,12.30
2017,10,17,08,31,12.30
2017,10,17,08,32,12.30
2017,10,17,08,33,12.30
2017,10,17,08,34,12.40
2017,10,17,08,35,12.40
2017,10,17,08,36,12.40
2017,10,17,08,37,12.40
2017,10,17,08,38,12.40
2017,10,17,08,39,12.40
2017,10,17,08,40,12.40
2017,10,17,08,41,12.40
2017,10,17,08,42,12.40
2017,10,17,08,43,12.40
2017,10,17,08,44,12.40
2017,10,17,08,45,12.30
2017,10,17,08,46,12.30
2017,10,17,08,47,12.30
2017,10,17,08,48,12.30
2017,10,17,08,49,12.30
2017,10,17,08,50,12.30
2017,10,17,08,51,12.30
2017,10,17,08,52,12.30
2017,10,17,08,53,12.30
2017,10,17,08,54,12.30
2017,10,17,08,55,12.30
2017,10,17,08,56,12.30
2017,10,17,08,57,12.30
2017,10,17,08,58,12.30
2017,10,17,08,59,12.30
2017,10,17,09,00,12.30
2017,10,17,09,01,12.20
2017,10,17,09,02,12.20
2017,10,17,09,03,12.20
2017,10,17,09,04,12.10
2017,10,17,09,05,12.10
2017,10,17,09,06,12.10
2017,10,17,09,07,12.00
2017,10,17,09,08,11.90
2017,10,17,09,09,11.90
2017,10,17,09,10,11.80
2017,10,17,09,11,11.80
2017,10,17,09,12,11.70
2017,10,17,09,13,11.60
2017,10,17,09,14,11.60
2017,10,17,09,15,11.50
2017,10,17,09,16,11.50
2017,10,17,09,17,11.40
2017,10,17,09,18,11.40
2017,10,17,09,19,11.40
2017,10,17,09,20,11.30
2017,10,17,09,21,11.30
2017,10,17,09,22,11.30
2017,10,17,09,23,11.30
2017,10,17,09,24,11.40
2017,10,17,09,25,11.40
2017,10,17,09,26,11.40
2017,10,17,09,27,11.40
2017,10,17,09,28,11.40
2017,10,17,09,29,11.50
2017,10,17,09,30,11.50
2017,10,17,09,31,11.60
2017,10,17,09,32,11.60
2017,10,17,09,33,11.60
2017,10,17,09,34,11.60
2017,10,17,09,35,11.70
2017,10,17,09,36,11.70
2017,10,17,09,37,11.70
2017,10,17,09,38,11.70
2017,10,17,09,39,11.80
2017,10,17,09,40,11.80
2017,10,17,09,41,11.90
2017,10,17,09,42,12.00
2017,10,17,09,43,12.10
2017,10,17,09,44,12.10
2017,10,17,09,45,12.10
2017,10,17,09,46,12.10
2017,10,17,09,47,12.10
2017,10,17,09,48,12.10
2017,10,17,09,49,12.20
2017,10,17,09,50,12.20
2017,10,17,09,51,12.20
2017,10,17,09,52,12.20
2017,10,17,09,53,12.20
2017,10,17,09,54,12.20
2017,10,17,09,55,12.20
2017,10,17,09,56,12.20
2017,10,17,09,57,12.20
2017,10,17,09,58,12.20
2017,10,17,09,59,12.30
2017,10,17,10,00,12.30
2017,10,17,10,01,12.40
2017,10,17,10,02,12.40
2017,10,17,10,03,12.50
2017,10,17,10,04,12.50
2017,10,17,10,05,12.50
2017,10,17,10,06,12.60
2017,10,17,10,07,12.60
2017,10,17,10,08,12.60
2017,10,17,10,09,12.70
2017,10,17,10,10,12.70
2017,10,17,10,11,12.70
2017,10,17,10,12,12.70
2017,10,17,10,13,12.70
2017,10,17,10,14,12.70
2017,10,17,10,15,12.70
2017,10,17,10,16,12.70
2017,10,17,10,17,12.70
2017,10,17,10,18,12.70
2017,10,17,10,19,12.70
2017,10,17,10,20,12.70
2017,10,17,10,21,12.70
2017,10,17,10,22,12.70
2017,10,17,10,23,12.80
2017,10,17,10,24,12.80
2017,10,17,10,25,12.80
2017,10,17,10,26,12.80
2017,10,17,10,27,12.80
2017,10,17,10,28,12.80
2017,10,17,10,29,12.80
2017,10,17,10,30,12.80
2017,10,17,10,31,12.80
2017,10,17,10,32,12.80
2017,10,17,10,33,12.90
2017,10,17,10,34,12.90
2017,10,17,10,35,12.90
2017,10,17,10,36,12.90
2017,10,17,10,37,12.90
2017,10,17,10,38,12.90
2017,10,17,10,39,12.90
2017,10,17,10,40,13.00
2017,10,17,10,41,13.00
2017,10,17,10,42,13.00
2017,10,17,10,43,13.00
2017,10,17,10,44,13.00
2017,10,17,10,45,13.00
2017,10,17,10,46,13.10
2017,10,17,10,47,13.10
2017,10,17,10,48,13.10
2017,10,17,10,49,13.10
2017,10,17,10,50,13.10
2017,10,17,10,51,13.10
2017,10,17,10,52,13.10
2017,10,17,10,53,13.10
2017,10,17,10,54,13.10
2017,10,17,10,55,13.10
2017,10,17,10,56,13.10
2017,10,17,10,57,13.20
2017,10,17,10,58,13.20
2017,10,17,10,59,13.20
2017,10,17,11,00,13.20
2017,10,17,11,01,13.10
2017,10,17,11,02,13.20
2017,10,17,11,03,13.20
2017,10,17,11,04,13.20
2017,10,17,11,05,13.20
2017,10,17,11,06,13.20
2017,10,17,11,07,13.20
2017,10,17,11,08,13.20
2017,10,17,11,09,13.30
2017,10,17,11,10,13.30
2017,10,17,11,11,13.30
2017,10,17,11,12,13.40
2017,10,17,11,13,13.40
2017,10,17,11,14,13.40
2017,10,17,11,15,13.40
2017,10,17,11,16,13.40
2017,10,17,11,17,13.50
2017,10,17,11,18,13.50
2017,10,17,11,19,13.50
2017,10,17,11,20,13.50
2017,10,17,11,21,13.60
2017,10,17,11,22,13.60
2017,10,17,11,23,13.70
2017,10,17,11,24,13.70
2017,10,17,11,25,13.70
2017,10,17,11,26,13.70
2017,10,17,11,27,13.70
2017,10,17,11,28,13.70
2017,10,17,11,29,13.70
2017,10,17,11,30,13.70
2017,10,17,11,31,13.70
2017,10,17,11,32,13.70
2017,10,17,11,33,13.70
2017,10,17,11,34,13.70
2017,10,17,11,35,13.80
2017,10,17,11,36,13.80
2017,10,17,11,37,13.80
2017,10,17,11,38,13.80
2017,10,17,11,39,13.80
2017,10,17,11,40,13.80
2017,10,17,11,41,13.80
2017,10,17,11,42,13.90
2017,10,17,11,43,13.90
2017,10,17,11,44,13.90
2017,10,17,11,45,13.90
2017,10,17,11,46,14.00
2017,10,17,11,47,14.00
2017,10,17,11,48,14.10
2017,10,17,11,49,14.10
2017,10,17,11,50,14.10
2017,10,17,11,51,14.10
2017,10,17,11,52,14.20
2017,10,17,11,53,14.20
2017,10,17,11,54,14.20
2017,10,17,11,55,14.10
2017,10,17,11,56,14.10
2017,10,17,11,57,14.10
2017,10,17,11,58,14.10
2017,10,17,11,59,14.10
2017,10,17,12,00,14.20
2017,10,17,12,01,14.20
2017,10,17,12,02,14.20
2017,10,17,12,03,14.30
2017,10,17,12,04,14.40
2017,10,17,12,05,14.40
2017,10,17,12,06,14.40
2017,10,17,12,07,14.40
2017,10,17,12,08,14.40
2017,10,17,12,09,14.40
2017,10,17,12,10,14.40
2017,10,17,12,11,14.40
2017,10,17,12,12,14.40
2017,10,17,12,13,14.40
2017,10,17,12,14,14.40
2017,10,17,12,15,14.40
2017,10,17,12,16,14.40
2017,10,17,12,17,14.40
2017,10,17,12,18,14.40
2017,10,17,12,19,14.50
2017,10,17,12,20,14.50
2017,10,17,12,21,14.50
2017,10,17,12,22,14.50
2017,10,17,12,23,14.50
2017,10,17,12,24,14.50
2017,10,17,12,25,14.50
2017,10,17,12,26,14.50
2017,10,17,12,27,14.60
2017,10,17,12,28,14.60
2017,10,17,12,29,14.60
2017,10,17,12,30,14.60
2017,10,17,12,31,14.60
2017,10,17,12,32,14.60
2017,10,17,12,33,14.60
2017,10,17,12,34,14.70
2017,10,17,12,35,14.70
2017,10,17,12,36,14.70
2017,10,17,12,37,14.70
2017,10,17,12,38,14.70
2017,10,17,12,39,14.70
2017,10,17,12,40,14.70
2017,10,17,12,41,14.80
2017,10,17,12,42,14.80
2017,10,17,12,43,14.80
2017,10,17,12,44,14.80
2017,10,17,12,45,14.80
2017,10,17,12,46,14.80
2017,10,17,12,47,14.80
2017,10,17,12,48,14.80
2017,10,17,12,49,14.80
2017,10,17,12,50,14.80
2017,10,17,12,51,14.80
2017,10,17,12,52,14.90
2017,10,17,12,53,14.90
2017,10,17,12,54,15.00
2017,10,17,12,55,15.00
2017,10,17,12,56,15.10
2017,10,17,12,57,15.10
2017,10,17,12,58,15.10
2017,10,17,12,59,15.10
2017,10,17,13,00,15.00
2017,10,17,13,01,15.00
2017,10,17,13,02,15.00
2017,10,17,13,03,15.00
2017,10,17,13,04,15.00
2017,10,17,13,05,15.00
2017,10,17,13,06,15.00
2017,10,17,13,07,15.10
2017,10,17,13,08,15.10
2017,10,17,13,09,15.20
2017,10,17,13,10,15.20
2017,10,17,13,11,15.30
2017,10,17,13,12,15.30
2017,10,17,13,13,15.20
2017,10,17,13,14,15.20
2017,10,17,13,15,15.10
2017,10,17,13,16,15.00
2017,10,17,13,17,15.00
2017,10,17,13,18,14.90
2017,10,17,13,19,14.80
2017,10,17,13,20,14.80
2017,10,17,13,21,14.70
2017,10,17,13,22,14.70
2017,10,17,13,23,14.70
2017,10,17,13,24,14.70
2017,10,17,13,25,14.70
2017,10,17,13,26,14.70
2017,10,17,13,27,14.60
2017,10,17,13,28,14.60
2017,10,17,13,29,14.70
2017,10,17,13,30,14.70
2017,10,17,13,31,14.70
2017,10,17,13,32,14.70
2017,10,17,13,33,14.70
2017,10,17,13,34,14.70
2017,10,17,13,35,14.70
2017,10,17,13,36,14.70
2017,10,17,13,37,14.70
2017,10,17,13,38,14.70
2017,10,17,13,39,14.70
2017,10,17,13,40,14.70
2017,10,17,13,41,14.80
2017,10,17,13,42,14.80
2017,10,17,13,43,14.90
2017,10,17,13,44,14.90
2017,10,17,13,45,14.90
2017,10,17,13,46,14.90
2017,10,17,13,47,14.90
2017,10,17,13,48,14.90
2017,10,17,13,49,14.90
2017,10,17,13,50,14.90
2017,10,17,13,51,14.90
2017,10,17,13,52,14.90
2017,10,17,13,53,15.00
2017,10,17,13,54,15.00
2017,10,17,13,55,15.00
2017,10,17,13,56,15.10
2017,10,17,13,57,15.10
2017,10,17,13,58,15.10
2017,10,17,13,59,15.20
2017,10,17,14,00,15.20
2017,10,17,14,01,15.20
2017,10,17,14,02,15.10
2017,10,17,14,03,15.10
2017,10,17,14,04,15.00
2017,10,17,14,05,15.00
2017,10,17,14,06,15.00
2017,10,17,14,07,15.00
2017,10,17,14,08,15.10
2017,10,17,14,09,15.10
2017,10,17,14,10,15.10
2017,10,17,14,11,15.10
2017,10,17,14,12,15.10
2017,10,17,14,13,15.10
2017,10,17,14,14,15.10
2017,10,17,14,15,15.00
2017,10,17,14,16,15.00
2017,10,17,14,17,15.00
2017,10,17,14,18,15.00
2017,10,17,14,19,14.90
2017,10,17,14,20,14.90
2017,10,17,14,21,14.90
2017,10,17,14,22,14.90
2017,10,17,14,23,14.90
2017,10,17,14,24,14.90
2017,10,17,14,25,14.90
2017,10,17,14,26,14.90
2017,10,17,14,27,14.90
2017,10,17,14,28,14.90
2017,10,17,14,29,14.90
2017,10,17,14,30,14.90
2017,10,17,14,31,14.90
2017,10,17,14,32,14.90
2017,10,17,14,33,14.90
2017,10,17,14,34,14.90
2017,10,17,14,35,15.00
2017,10,17,14,36,15.00
2017,10,17,14,37,14.90
2017,10,17,14,38,14.90
2017,10,17,14,39,14.90
2017,10,17,14,40,14.90
2017,10,17,14,41,14.90
2017,10,17,14,42,14.90
2017,10,17,14,43,14.80
2017,10,17,14,44,14.80
2017,10,17,14,45,14.80
2017,10,17,14,46,14.80
2017,10,17,14,47,14.80
2017,10,17,14,48,14.80
2017,10,17,14,49,14.80
2017,10,17,14,50,14.80
2017,10,17,14,51,14.80
2017,10,17,14,52,14.80
2017,10,17,14,53,14.80
2017,10,17,14,54,14.70
2017,10,17,14,55,14.60
2017,10,17,14,56,14.60
2017,10,17,14,57,14.60
2017,10,17,14,58,14.60
2017,10,17,14,59,14.60
2017,10,17,15,00,14.60
2017,10,17,15,01,14.60
2017,10,17,15,02,14.50
2017,10,17,15,03,14.50
2017,10,17,15,04,14.50
2017,10,17,15,05,14.50
2017,10,17,15,06,14.50
2017,10,17,15,07,14.40
2017,10,17,15,08,14.40
2017,10,17,15,09,14.40
2017,10,17,15,10,14.30
2017,10,17,15,11,14.40
2017,10,17,15,12,14.40
2017,10,17,15,13,14.40
2017,10,17,15,14,14.40
2017,10,17,15,15,14.40
2017,10,17,15,16,14.40
2017,10,17,15,17,14.40
2017,10,17,15,18,14.40
2017,10,17,15,19,14.40
2017,10,17,15,20,14.40
2017,10,17,15,21,14.40
2017,10,17,15,22,14.40
2017,10,17,15,23,14.40
2017,10,17,15,24,14.40
2017,10,17,15,25,14.40
2017,10,17,15,26,14.40
2017,10,17,15,27,14.40
2017,10,17,15,28,14.40
2017,10,17,15,29,14.30
2017,10,17,15,30,14.30
2017,10,17,15,31,14.20
2017,10,17,15,32,14.20
2017,10,17,15,33,14.20
2017,10,17,15,34,14.20
2017,10,17,15,35,14.20
2017,10,17,15,36,14.30
2017,10,17,15,37,14.30
2017,10,17,15,38,14.30
2017,10,17,15,39,14.30
2017,10,17,15,40,14.30
2017,10,17,15,41,14.30
2017,10,17,15,42,14.30
2017,10,17,15,43,14.30
2017,10,17,15,44,14.30
2017,10,17,15,45,14.30
2017,10,17,15,46,14.30
2017,10,17,15,47,14.30
2017,10,17,15,48,14.20
2017,10,17,15,49,14.20
2017,10,17,15,50,14.20
2017,10,17,15,51,14.10
2017,10,17,15,52,14.10
2017,10,17,15,53,14.00
2017,10,17,15,54,14.00
2017,10,17,15,55,14.00
2017,10,17,15,56,13.90
2017,10,17,15,57,13.90
2017,10,17,15,58,13.90
2017,10,17,15,59,13.90
2017,10,17,16,00,13.90
2017,10,17,16,01,13.90
2017,10,17,16,02,13.90
2017,10,17,16,03,13.90
2017,10,17,16,04,13.90
2017,10,17,16,05,13.90
2017,10,17,16,06,13.90
2017,10,17,16,07,13.90
2017,10,17,16,08,13.80
2017,10,17,16,09,13.80
2017,10,17,16,10,13.80
2017,10,17,16,11,13.80
2017,10,17,16,12,13.80
2017,10,17,16,13,13.80
2017,10,17,16,14,13.80
2017,10,17,16,15,13.80
2017,10,17,16,16,13.80
2017,10,17,16,17,13.80
2017,10,17,16,18,13.80
2017,10,17,16,19,13.80
2017,10,17,16,20,13.80
2017,10,17,16,21,13.70
2017,10,17,16,22,13.70
2017,10,17,16,23,13.70
2017,10,17,16,24,13.70
2017,10,17,16,25,13.60
2017,10,17,16,26,13.60
2017,10,17,16,27,13.60
2017,10,17,16,28,13.60
2017,10,17,16,29,13.60
2017,10,17,16,30,13.50
2017,10,17,16,31,13.50
2017,10,17,16,32,13.50
2017,10,17,16,33,13.40
2017,10,17,16,34,13.40
2017,10,17,16,35,13.40
2017,10,17,16,36,13.40
2017,10,17,16,37,13.40
2017,10,17,16,38,13.30
2017,10,17,16,39,13.30
2017,10,17,16,40,13.30
2017,10,17,16,41,13.30
2017,10,17,16,42,13.30
2017,10,17,16,43,13.30
2017,10,17,16,44,13.30
2017,10,17,16,45,13.30
2017,10,17,16,46,13.30
2017,10,17,16,47,13.30
2017,10,17,16,48,13.30
2017,10,17,16,49,13.20
2017,10,17,16,50,13.20
2017,10,17,16,51,13.20
2017,10,17,16,52,13.20
2017,10,17,16,53,13.20
2017,10,17,16,54,13.20
2017,10,17,16,55,13.20
2017,10,17,16,56,13.20
2017,10,17,16,57,13.10
2017,10,17,16,58,13.10
2017,10,17,16,59,13.10
2017,10,17,17,00,13.10
2017,10,17,17,01,13.10
2017,10,17,17,02,13.10
2017,10,17,17,03,13.10
2017,10,17,17,04,13.10
2017,10,17,17,05,13.10
2017,10,17,17,06,13.00
2017,10,17,17,07,13.00
2017,10,17,17,08,13.00
2017,10,17,17,09,12.90
2017,10,17,17,10,12.90
2017,10,17,17,11,12.90
2017,10,17,17,12,12.90
2017,10,17,17,13,12.90
2017,10,17,17,14,12.90
2017,10,17,17,15,12.90
2017,10,17,17,16,12.90
2017,10,17,17,17,12.90
2017,10,17,17,18,12.80
2017,10,17,17,19,12.80